Weather Roundup
Issued by NWS Chicago, IL

Home | Current Version | Previous Version | Graphics & Text | Print | Product List | Glossary On
Versions: 1 2 3 4 5 6 7 8 9 10 11 12 13 14 15 16 17 18 19 20 21 22 23 24 25 26 27 28 29 30 31 32 33 34 35 36 37 38 39 40 41 42 43 44 45 46 47 48 49 50
000
NZUS59 KLOT 311421
HRRLOT

CHICAGO AREA WEATHER ROUNDUP
NATIONAL WEATHER SERVICE CHICAGO/ROMEOVILLE IL
900 AM CDT FRI JUL 31 2015

NOTE: "FAIR" INDICATES FEW OR NO CLOUDS BELOW 12,000 FEET WITH NO
SIGNIFICANT WEATHER AND/OR OBSTRUCTIONS TO VISIBILITY.

* THESE STATIONS ARE NOT UNDER NWS QUALITY CONTROL. THEY ALSO MAY NOT
  REPORT WEATHER SUCH AS PRECIPITATION OR FOG.

ILZ005-006-012>014-019>023-311500-
NORTHEAST ILLINOIS

CITY           SKY/WX    TMP DP  RH WIND       PRES   REMARKS
OHARE          PTSUNNY   75  63  66 W12       30.01F
MIDWAY         MOSUNNY   76  62  62 SW10      30.01F
AURORA         MOSUNNY   76  67  73 W13       30.04F
LANSING*       CLOUDY    75  63  65 W8        30.04R
JOLIET*        MOSUNNY   77  69  77 W5        30.04S
WAUKEGAN       MOSUNNY   76  61  59 VRB5      29.99F
DUPAGE AIRPORT MOSUNNY   74  65  73 W9        30.03F
WHEELING       PTSUNNY   77  60  55 W13G18    30.02F
KANKAKEE*      SUNNY     77  69  75 W8        30.06S
MORRIS*        MOSUNNY   76  69  80 W10       30.04S
LEWIS AIRPORT* PTSUNNY   73  65  77 W6        30.04F
NORTHERLY IS     N/A     76  59  55 W3          N/A
$$

WIZ051-052-058>065-066-070>072-311500-
SOUTHEAST WISCONSIN

CITY           SKY/WX    TMP DP  RH WIND       PRES   REMARKS
MILWAUKEE      MOSUNNY   78  58  49 W9        29.98F
KENOSHA*       MOSUNNY   76  64  66 W12       30.00S
RACINE*        MOSUNNY   76  60  57 W8        30.00F
BURLINGTON     SUNNY     75  59  58 W9        30.00S
WAUKESHA       SUNNY     73  59  60 W10       30.00F
WEST BEND      SUNNY     73  55  53 W10G16    29.97F
$$

INZ001>003-010>013-019-020-311500-
NORTHWEST INDIANA

CITY           SKY/WX    TMP DP  RH WIND       PRES   REMARKS
GARY*          PTSUNNY   77  63  61 W14       30.05R
MICHIGAN CITY* NOT AVBL
RENSSELAER*    NOT AVBL
VALPARAISO     MOSUNNY   78  62  57 W12       30.04S HX  80
$$

LMZ740>746-311500-
SOUTHERN LAKE MICHIGAN

STATION/POSITION TIME  SKY/WX   TEMP WIND        PRES    VSBY
                                AIR  DIR/SP/G
                 (UTC)          (F)  (DEG/KT/KT) (MB)    (MI)
HARRISON CRIB    1400            75  240/ 13/ 15   N/A
BURNHAM HARBOR   1400            77  220/  7/ 12   N/A
CALUMET HARBOR   1400            73  210/  5/  9   N/A
BURNS HARBOR     1300            74  240/  8/ 11 1017.3S
MICHIGAN CITY    1400            74  220/ 15/ 16   N/A
$$

ABBREVIATIONS USED IN REMARKS
   TC - TEMPERATURE IN CELSIUS
  WCI - WIND CHILL INDEX
   HX - HEAT INDEX
  VSB - VISIBILITY
$$



USA.gov is the U.S. government's official web portal to all federal, state and local government web resources and services.